Temperature
22 18 18 18 19 19 21 21 21 22 22 21 20 19 18 18 17 16 15 15 15 15 15 16 16 16 16 16 16 16 16 16 15 16 15 15 15 15 15 15 15 15 15 15
19 18 19 20 21 22 22 21 21 21 22 22 19 18 17 16 16 15 14 14 14 15 15 15 15 15 15 15 16 16 16 16 15 15 15 15 15 14 14 14 14 15 15 15
19 20 22 22 22 22 22 21 21 22 21 20 19 17 16 16 15 14 14 13 13 14 14 14 14 14 14 14 14 14 15 15 15 15 14 14 14 14 14 14 14 14 14 14
19 21 22 22 22 23 21 22 22 22 20 18 19 16 16 15 15 14 13 13 13 13 13 13 13 13 13 13 13 14 14 14 14 14 14 14 14 14 14 13 13 13 13 13
20 22 22 22 23 23 22 22 22 21 19 17 17 16 15 15 14 14 13 12 12 12 12 12 12 12 12 12 12 13 13 13 14 14 14 14 14 13 13 13 13 13 13 13
21 22 22 23 23 23 23 21 19 17 16 16 17 16 15 14 15 14 13 12 12 11 12 12 12 12 12 12 12 12 12 13 13 13 13 13 13 13 12 12 12 12 12 12
21 22 22 23 22 22 20 17 16 16 15 16 16 16 14 14 15 14 12 12 11 11 11 12 11 11 11 11 11 11 11 12 12 12 12 12 12 12 12 12 12 12 12 12
20 20 22 22 22 21 20 18 16 16 16 15 16 15 14 14 14 13 12 11 11 11 11 11 10 10 10 10 10 10 10 11 11 11 11 11 11 11 11 11 11 11 11 11
19 20 22 23 23 21 20 18 17 15 16 15 14 14 14 13 13 12 11 11 10 10 10 10 10 10 9 9 9 10 10 10 10 10 10 10 10 10 10 10 10 10 10 10
20 20 21 22 21 21 20 19 15 15 15 15 15 14 13 13 13 12 11 10 9 9 9 9 9 9 9 9 9 9 9 9 9 9 10 9 9 9 9 9 10 10 10 9
20 19 19 19 20 20 20 19 16 14 14 14 14 14 15 13 13 12 11 10 9 9 9 9 9 8 8 8 8 8 8 9 9 9 9 9 8 8 8 8 8 8 8 8
19 16 17 19 19 20 19 19 16 15 15 14 13 13 14 13 12 11 10 9 9 9 8 8 8 8 8 8 8 8 8 8 8 8 8 8 8 8 8 8 8 8 8 8
18 16 16 17 17 19 19 19 18 15 14 13 14 14 13 12 11 11 10 9 8 8 8 8 8 7 7 7 7 7 7 7 7 7 7 7 7 7 7 7 7 7 7 7
18 16 16 16 17 18 19 19 19 16 14 14 15 14 12 12 11 10 9 9 8 8 8 7 7 7 7 7 6 6 6 6 6 6 6 6 6 6 6 6 6 6 6 6
17 17 18 18 19 19 19 19 19 18 16 15 15 14 13 12 11 10 9 8 8 7 7 7 7 7 6 6 6 6 6 6 6 6 6 6 6 6 6 6 6 6 6 6
15 17 17 18 19 19 19 19 19 18 17 16 14 13 13 11 10 9 9 8 8 7 7 7 7 6 6 6 6 6 6 6 5 5 5 5 5 5 5 5 5 5 6 6
15 15 16 16 17 18 17 18 18 17 16 15 14 13 11 10 10 9 8 8 8 7 7 7 6 6 6 6 6 5 5 5 5 5 5 5 5 5 5 5 5 5 5 5
15 15 14 15 16 16 16 17 18 16 15 15 13 12 11 10 10 9 9 8 7 7 7 7 6 6 6 6 5 5 5 5 5 5 5 5 5 5 5 5 5 5 5 5
15 15 14 14 15 16 17 17 17 15 14 13 12 11 10 9 9 8 8 9 8 8 7 7 6 6 6 5 5 5 5 5 5 5 5 5 5 5 5 5 5 5 5 5
15 14 14 14 15 15 16 17 17 15 13 13 12 10 9 9 9 8 8 8 8 7 7 7 6 6 6 5 5 5 5 5 5 5 5 5 5 5 5 5 5 5 5 5
15 14 14 14 14 15 16 17 17 15 14 13 12 10 10 10 9 9 8 8 7 7 7 6 6 6 5 5 5 5 5 5 5 5 5 5 5 5 5 5 5 5 5 5
14 14 14 13 14 15 16 16 15 14 13 13 11 11 10 10 9 8 8 7 7 7 6 6 6 5 5 5 5 5 5 5 5 5 5 5 5 5 5 5 5 5 5 5
14 13 13 13 13 14 15 15 15 15 13 12 11 11 10 9 8 8 7 7 7 6 6 6 6 5 5 5 5 5 5 5 5 5 5 5 5 5 5 5 5 5 5 5
14 13 12 12 13 14 14 15 15 15 14 13 12 11 10 9 8 7 7 7 6 6 6 6 6 6 5 5 5 5 5 5 5 5 5 5 5 5 5 5 5 5 5 5
14 14 13 13 13 13 14 14 14 13 13 12 11 10 10 9 8 7 7 6 6 6 6 6 6 6 6 5 5 5 5 5 5 5 5 5 5 5 5 5 5 5 5 5
14 14 13 13 13 12 13 13 13 13 12 11 10 9 9 9 8 7 7 6 6 6 6 6 6 6 6 6 6 6 6 6 6 6 6 6 6 6 5 5 5 5 5 5
Wind_Speed
2 2 5 9 9 9 6 5 6 6 4 4 6 5 4 7 10 10 10 10 11 9 8 8 8 8 7 7 7 5 4 4 2 2 3 3 3 2 2 3 3 3 2 2
4 7 14 11 9 8 7 7 6 5 2 3 6 5 4 6 7 8 9 9 10 9 9 9 9 10 9 7 6 5 4 3 2 2 2 3 4 2 2 2 3 4 4 3
8 10 9 8 10 7 6 4 3 2 4 5 6 3 3 5 8 9 9 8 8 10 10 10 10 10 10 9 8 5 5 4 3 4 4 4 3 2 2 2 2 4 5 5
8 11 9 7 7 5 5 4 2 1 3 2 2 2 1 3 5 7 7 7 7 8 10 10 10 10 10 9 8 7 6 5 4 4 5 5 5 3 3 2 2 3 6 6
7 6 5 6 6 4 5 2 2 2 2 2 3 3 2 3 3 4 5 6 7 8 9 10 10 9 9 9 8 8 7 7 7 6 6 6 6 4 4 4 5 5 5 6
10 7 4 5 5 3 3 5 7 6 5 2 2 3 2 2 4 6 6 7 8 9 9 9 9 8 8 8 8 8 8 8 7 7 7 6 7 6 6 6 5 5 4 4
7 7 4 2 2 3 6 7 5 6 4 3 2 2 3 2 4 9 10 9 8 8 9 9 8 8 8 9 8 8 8 8 7 7 7 7 6 7 7 5 5 5 4 4
2 6 4 1 3 3 2 8 7 4 4 4 2 1 1 1 4 9 10 10 10 9 8 8 8 8 8 8 8 8 8 8 7 7 7 6 6 5 5 5 5 4 4 4
4 5 3 1 1 5 3 2 7 6 1 1 1 1 0 3 6 10 10 10 9 8 8 8 8 7 8 8 8 7 7 7 7 7 6 6 6 6 5 5 5 4 4 4
5 2 4 3 6 4 4 5 6 5 3 2 2 3 4 8 9 10 10 10 9 8 8 8 7 7 7 6 6 7 7 7 6 6 6 6 6 6 6 5 6 6 6 5
3 3 3 4 2 1 2 2 5 4 5 5 3 5 4 11 12 12 10 10 9 8 7 6 6 6 6 6 6 7 7 7 6 7 7 7 6 6 6 6 6 6 6 6
1 5 0 4 4 2 3 4 6 5 3 5 4 5 1 9 11 12 12 11 9 9 8 7 6 6 6 7 6 7 6 6 6 6 7 7 7 7 7 7 6 6 7 7
3 5 3 5 6 4 1 2 4 6 5 4 4 4 2 8 10 11 12 11 10 10 8 7 6 6 6 5 5 6 6 6 6 6 7 7 7 7 7 6 6 7 7 7
4 4 5 6 6 4 3 3 2 5 4 4 6 6 6 10 12 12 12 11 11 10 9 8 7 6 5 5 5 5 5 5 6 6 6 7 6 6 6 6 7 7 7 8
4 2 2 4 4 2 4 4 3 3 6 7 7 9 12 13 14 14 13 12 12 11 9 9 7 6 5 5 4 4 5 5 5 5 6 6 5 5 6 7 7 7 8 8
3 2 1 4 3 5 4 3 1 3 4 6 8 4 6 10 11 12 13 13 12 11 10 9 8 7 6 5 5 4 4 4 5 5 5 5 5 6 6 6 6 7 7 8
1 2 1 3 4 4 3 3 0 2 4 7 7 7 12 12 14 14 13 12 12 12 11 10 8 7 6 5 5 5 4 4 5 5 5 5 5 5 5 6 6 6 6 7
4 2 2 0 4 1 6 3 4 6 3 5 8 11 13 12 10 9 10 12 12 12 11 10 8 7 6 5 5 4 4 4 4 4 4 4 5 5 5 6 6 6 5 6
7 5 3 2 1 3 4 2 4 5 2 5 12 13 12 14 10 5 6 9 10 10 10 8 7 7 7 6 4 4 3 3 4 4 4 4 4 5 5 5 5 4 5 5
3 5 4 3 2 5 6 2 4 8 2 5 12 17 16 12 7 6 9 10 10 10 9 9 8 7 6 4 4 5 4 4 4 4 4 4 4 5 5 4 4 3 4 5
2 2 3 3 3 5 4 2 2 3 7 8 12 16 14 7 6 11 13 11 11 11 10 10 9 7 6 5 5 5 5 4 3 4 4 4 4 4 4 4 3 4 5 6
3 3 3 3 3 6 4 1 3 5 4 10 10 12 10 11 14 15 14 13 13 12 11 10 8 6 5 5 6 6 5 4 4 4 5 4 4 3 5 5 4 4 5 6
2 5 4 5 6 4 1 3 4 6 9 8 9 13 16 15 15 15 13 13 12 11 10 9 9 7 5 5 6 7 4 4 5 5 5 5 6 5 5 5 5 5 5 4
2 3 3 2 1 1 4 6 6 9 10 11 14 16 16 17 17 15 14 12 11 9 9 8 8 8 6 5 5 5 4 4 5 5 4 5 6 6 6 5 4 4 4 3
4 1 3 2 3 4 3 6 11 13 15 16 14 14 16 18 17 15 13 12 10 9 7 7 8 7 6 5 5 3 4 5 5 4 4 5 5 6 6 5 4 4 2 3
3 5 5 6 8 5 5 7 14 16 16 17 17 14 14 15 16 14 13 10 9 9 8 8 8 7 6 5 5 4 4 5 5 4 3 3 4 4 4 5 4 7 4 6
Wind_Direction
242 109 237 234 215 212 244 275 291 282 278 114 138 137 128 115 110 113 112 107 101 93 81 69 66 64 65 61 65 72 71 73 72 104 122 115 109 106 86 64 76 90 102 160
348 263 242 239 248 239 250 264 281 300 20 100 115 102 95 94 104 111 110 108 105 98 78 64 59 53 51 53 53 59 60 73 89 114 128 127 128 115 100 58 55 68 74 62
226 250 256 240 249 251 265 228 245 279 11 52 94 56 74 88 93 92 85 86 89 95 89 76 64 56 48 39 31 38 38 61 81 101 115 119 111 110 86 46 44 40 65 66
248 258 264 257 248 224 263 251 178 78 61 314 120 176 237 128 97 96 96 90 83 81 83 79 69 61 54 40 25 23 40 49 59 81 103 116 120 119 104 91 82 60 60 64
264 282 286 262 248 211 213 225 76 66 98 33 15 127 245 145 126 125 115 105 94 85 80 77 71 63 55 46 36 28 40 42 45 60 78 89 92 88 91 85 78 65 57 54
260 272 249 242 254 204 159 57 34 42 67 42 283 147 231 215 193 152 133 116 102 93 84 76 68 63 54 47 41 36 40 39 41 54 64 83 94 93 88 80 76 63 55 51
306 309 294 273 355 5 73 78 31 3 14 260 267 123 229 269 168 151 146 130 108 95 87 76 62 55 52 46 41 40 44 42 42 53 57 66 81 91 91 90 87 81 68 58
272 298 300 319 167 179 140 129 150 196 224 267 328 181 236 24 114 123 125 123 109 98 91 84 71 61 58 50 43 44 50 45 43 51 54 58 67 82 90 90 93 87 80 64
205 261 296 340 93 131 110 146 162 143 166 257 255 179 235 126 127 132 131 124 116 108 98 89 76 65 60 54 47 46 52 51 46 51 59 60 66 78 85 84 86 81 73 72
182 249 316 351 39 30 135 149 92 111 147 244 262 216 210 189 177 160 146 136 124 114 101 92 84 72 63 56 49 50 51 54 49 50 59 69 62 67 75 79 79 77 73 71
169 156 334 14 57 249 43 86 115 126 154 162 234 259 214 187 179 165 150 138 132 122 112 101 90 81 72 60 52 51 53 53 53 56 62 65 62 62 66 68 70 76 76 73
106 119 169 270 268 208 162 181 151 151 198 168 177 256 279 165 160 152 142 135 127 119 111 101 92 83 74 65 58 56 53 56 60 66 69 67 65 63 63 63 60 66 69 68
70 93 60 349 343 348 339 206 164 137 127 157 173 237 111 130 136 142 140 136 129 120 115 108 100 91 85 79 73 68 62 61 60 68 75 69 64 61 60 60 61 63 67 67
101 114 160 192 226 249 269 266 177 134 150 185 198 177 163 157 150 146 143 139 133 129 127 120 112 104 99 91 83 79 73 67 68 69 72 69 65 64 63 63 64 66 69 71
88 121 219 245 257 265 265 268 238 191 181 177 189 176 184 175 162 155 149 143 139 137 134 130 126 119 111 102 92 85 84 77 75 77 76 72 67 64 62 64 65 66 70 75
61 130 340 323 329 325 316 321 268 153 136 138 137 164 157 143 140 147 151 149 146 143 141 139 136 130 125 122 112 102 94 87 83 85 83 77 71 68 67 71 70 68 68 70
70 119 106 292 323 1 316 298 108 127 149 156 178 177 143 146 157 160 157 151 149 147 146 145 142 137 132 128 121 112 101 91 86 84 79 75 77 75 73 81 79 76 76 78
153 126 138 171 19 259 255 276 121 102 84 124 126 140 150 148 141 140 149 149 149 147 145 144 140 133 128 123 119 115 106 102 97 90 88 87 85 78 75 80 84 84 84 84
166 151 130 120 172 271 287 271 142 123 92 130 131 134 126 118 105 113 141 143 144 142 141 139 135 130 130 130 128 118 107 101 101 101 101 101 97 88 81 80 81 84 90 87
121 122 127 138 169 236 251 263 130 105 134 170 147 147 145 136 148 171 154 136 131 131 132 131 129 125 128 132 125 118 112 107 112 114 110 101 94 93 91 89 82 77 91 98
71 88 150 172 207 256 269 272 106 152 216 169 157 155 156 163 161 146 140 134 133 133 132 131 131 133 140 140 127 119 115 116 119 103 96 93 92 99 101 88 79 89 92 93
173 162 172 158 198 246 291 96 168 198 133 139 143 147 134 120 120 129 133 134 133 131 130 129 128 129 131 133 127 119 122 124 103 92 87 90 88 90 91 84 76 85 98 96
200 187 172 182 211 240 339 131 139 128 126 128 136 136 131 128 131 132 134 135 135 134 132 132 132 127 120 120 120 120 125 112 98 93 89 87 78 70 80 91 88 78 84 96
256 162 130 124 206 117 96 99 100 118 124 128 134 134 134 133 136 135 136 135 134 133 134 133 130 128 124 121 119 130 132 116 104 100 91 88 86 77 68 71 82 90 96 108
243 150 108 126 155 105 84 112 115 111 116 121 125 131 136 135 138 137 137 138 137 135 134 135 136 136 135 131 135 143 128 114 105 102 96 93 93 98 84 69 62 83 75 150
228 176 168 197 190 157 165 145 128 126 130 133 131 128 133 137 138 137 138 138 137 138 136 135 136 137 138 139 146 148 137 128 120 113 113 121 119 113 109 100 65 42 61 73
Height
1493 1499 1503 1499 1498 1499 1498 1499 1500 1492 1484 1488 1495 1499 1500 1498 1499 1501 1502 1504 1505 1506 1508 1508 1509 1509 1509 1509 1509 1510 1511 1511 1512 1512 1513 1514 1514 1516 1517 1518 1521 1522 1523 1523
1499 1501 1491 1489 1490 1492 1493 1497 1497 1491 1484 1488 1497 1503 1503 1502 1503 1504 1504 1505 1505 1506 1507 1508 1509 1509 1510 1509 1509 1509 1509 1510 1511 1511 1512 1513 1514 1515 1516 1516 1518 1519 1519 1520
1500 1491 1483 1486 1488 1490 1491 1494 1494 1492 1489 1490 1498 1509 1508 1508 1508 1508 1508 1509 1508 1508 1507 1508 1509 1510 1511 1510 1510 1508 1508 1509 1509 1510 1510 1512 1513 1514 1514 1515 1515 1516 1516 1517
1492 1484 1483 1484 1484 1485 1493 1484 1484 1487 1497 1507 1502 1521 1514 1511 1512 1512 1512 1512 1512 1511 1509 1508 1510 1510 1510 1511 1511 1510 1509 1509 1509 1509 1510 1510 1510 1511 1511 1513 1513 1514 1514 1515
1489 1481 1482 1483 1480 1478 1483 1479 1481 1486 1496 1507 1507 1517 1519 1512 1514 1515 1514 1514 1513 1513 1512 1511 1511 1511 1511 1511 1511 1511 1510 1510 1509 1508 1509 1508 1509 1509 1510 1511 1512 1513 1513 1513
1483 1476 1476 1475 1472 1473 1475 1481 1488 1497 1506 1518 1511 1515 1519 1513 1511 1512 1514 1515 1514 1514 1513 1513 1513 1512 1512 1512 1511 1511 1510 1509 1509 1508 1508 1508 1508 1509 1509 1510 1511 1511 1511 1512
1485 1478 1473 1471 1475 1475 1479 1498 1517 1519 1526 1522 1508 1513 1517 1508 1506 1508 1512 1514 1515 1514 1513 1513 1514 1513 1512 1512 1511 1511 1510 1509 1509 1509 1508 1508 1508 1509 1509 1510 1510 1510 1510 1511
1495 1493 1476 1471 1475 1480 1482 1495 1518 1527 1528 1523 1512 1516 1515 1509 1508 1509 1511 1513 1514 1514 1514 1514 1514 1514 1513 1512 1512 1511 1511 1510 1510 1510 1509 1509 1509 1509 1510 1510 1511 1510 1510 1511
1492 1490 1472 1469 1469 1474 1484 1491 1494 1511 1515 1523 1520 1517 1514 1511 1511 1511 1512 1513 1514 1516 1516 1516 1516 1515 1514 1514 1513 1512 1512 1511 1511 1510 1510 1510 1510 1510 1510 1511 1511 1511 1511 1512
1481 1487 1478 1472 1471 1474 1478 1484 1500 1510 1522 1526 1518 1517 1516 1511 1510 1511 1513 1514 1515 1516 1516 1517 1517 1516 1516 1515 1515 1514 1514 1513 1512 1512 1511 1511 1511 1511 1511 1511 1511 1511 1512 1513
1477 1488 1485 1480 1481 1483 1482 1486 1495 1508 1512 1522 1526 1520 1501 1503 1505 1508 1512 1514 1515 1517 1517 1518 1518 1518 1517 1517 1517 1516 1515 1514 1513 1513 1512 1513 1512 1512 1512 1512 1512 1513 1514 1514
1477 1487 1493 1485 1476 1474 1478 1482 1492 1506 1509 1512 1519 1518 1497 1499 1502 1507 1511 1514 1516 1516 1518 1519 1519 1519 1519 1519 1518 1518 1517 1516 1515 1515 1515 1515 1514 1514 1514 1514 1514 1515 1516 1516
1477 1489 1502 1499 1492 1482 1480 1479 1483 1493 1504 1511 1516 1513 1499 1500 1504 1508 1511 1513 1515 1517 1519 1520 1521 1521 1521 1521 1520 1520 1519 1518 1518 1517 1517 1517 1516 1517 1517 1517 1517 1518 1518 1519
1475 1488 1498 1502 1496 1486 1483 1479 1479 1489 1502 1504 1502 1502 1503 1503 1505 1508 1511 1513 1515 1517 1519 1520 1521 1522 1523 1523 1522 1522 1521 1521 1520 1520 1520 1519 1519 1519 1520 1520 1521 1521 1521 1522
1476 1486 1484 1484 1479 1479 1478 1476 1476 1481 1486 1494 1494 1496 1497 1499 1503 1507 1510 1513 1515 1517 1519 1521 1522 1523 1524 1524 1524 1524 1524 1524 1523 1523 1522 1522 1522 1523 1523 1523 1524 1524 1524 1525
1479 1484 1483 1484 1478 1477 1477 1475 1474 1476 1480 1485 1490 1494 1493 1498 1503 1507 1510 1512 1515 1517 1519 1521 1523 1524 1525 1526 1526 1526 1526 1527 1526 1526 1526 1526 1526 1526 1526 1526 1527 1527 1527 1528
1482 1486 1490 1493 1482 1480 1486 1479 1477 1478 1478 1482 1489 1492 1493 1499 1502 1505 1509 1512 1514 1517 1519 1521 1523 1525 1526 1528 1528 1529 1529 1529 1529 1529 1529 1529 1529 1529 1529 1530 1530 1530 1531 1531
1482 1487 1493 1494 1491 1498 1487 1474 1473 1477 1479 1479 1483 1488 1491 1496 1501 1506 1508 1511 1514 1517 1520 1522 1524 1526 1528 1529 1531 1531 1532 1532 1532 1532 1533 1533 1532 1532 1533 1533 1533 1533 1534 1534
1474 1483 1492 1497 1499 1493 1482 1475 1474 1480 1485 1483 1485 1491 1496 1499 1504 1509 1511 1512 1514 1517 1520 1523 1525 1527 1529 1531 1533 1534 1534 1535 1535 1535 1536 1536 1536 1536 1536 1536 1536 1537 1537 1537
1473 1478 1489 1495 1498 1498 1483 1472 1471 1477 1488 1485 1485 1490 1495 1499 1505 1509 1511 1513 1516 1519 1522 1524 1527 1529 1531 1533 1535 1536 1536 1537 1538 1538 1539 1539 1539 1539 1539 1539 1539 1540 1540 1540
1481 1484 1489 1493 1495 1487 1475 1471 1472 1485 1485 1482 1484 1487 1492 1495 1499 1504 1509 1513 1517 1520 1523 1526 1529 1531 1533 1535 1537 1538 1539 1540 1540 1541 1541 1541 1542 1542 1542 1542 1542 1543 1543 1543
1484 1486 1488 1492 1495 1490 1472 1471 1475 1477 1475 1479 1483 1487 1491 1495 1499 1504 1509 1514 1518 1521 1525 1528 1530 1533 1535 1537 1539 1540 1541 1542 1543 1543 1544 1544 1544 1545 1545 1545 1545 1546 1546 1546
1480 1480 1482 1485 1485 1475 1472 1472 1472 1473 1476 1480 1484 1488 1492 1496 1501 1506 1511 1515 1519 1523 1527 1530 1532 1535 1537 1539 1541 1542 1544 1545 1545 1546 1546 1547 1547 1547 1548 1548 1548 1548 1549 1549
1476 1474 1478 1480 1477 1475 1473 1473 1474 1475 1477 1481 1485 1489 1493 1497 1502 1507 1512 1517 1521 1525 1529 1532 1534 1537 1539 1541 1543 1545 1546 1547 1548 1548 1549 1549 1550 1550 1550 1550 1550 1551 1551 1551
1474 1473 1476 1478 1477 1477 1477 1476 1476 1478 1481 1484 1489 1492 1495 1499 1504 1509 1514 1519 1523 1527 1531 1534 1536 1539 1541 1543 1545 1547 1548 1549 1550 1551 1551 1552 1552 1553 1553 1553 1553 1553 1553 1553
1469 1470 1473 1474 1471 1474 1477 1477 1478 1480 1483 1487 1490 1495 1499 1502 1506 1511 1516 1521 1525 1529 1532 1535 1538 1541 1543 1545 1547 1549 1550 1551 1552 1553 1553 1554 1555 1555 1555 1555 1555 1555 1555 1555